Tracking 33723 objects as of 10-Apr-2026
HD Live streaming from Space Station
objects crossing your sky now

NOAA 16 DEB

Track NOAA 16 DEB now!
10-day predictions


NORAD ID: 41421
Int'l Code: 2000-055LA
Perigee: 655.5 km
Apogee: 693.9 km
Inclination: 99.0 °
Period: 98.1 minutes
Semi major axis: 7045 km
RCS: Unknown
Launch date: September 21, 2000
Source: United States (US)
Launch site: AIR FORCE WESTERN TEST RANGE (AFWTR)

Note: This is SATELLITE DEBRIS
Your satellite tracking list
Your tracking list is empty




NASA's NSSDC Master Catalog

Two Line Element Set (TLE):
1 41421U 00055LA  26098.37092351  .00012190  00000-0  21236-2 0  9996
2 41421  98.9530 322.6293 0027221 274.4679  85.3414 14.67964567528519
Source of the keplerian elements: AFSPC